Regional Weather Roundup
Issued by NWS

Home | Current Version | Previous Version | Text Only | Print | Product List | Glossary Off
Versions: 1 2 3 4 5 6 7 8 9 10 11 12 13 14 15 16 17 18 19 20 21 22 23 24 25 26 27

000
ASUS45 KBOU 172206
RWRCO

WEATHER ROUNDUP FOR COLORADO
NATIONAL WEATHER SERVICE DENVER/BOULDER CO
400 PM MDT THU APR 17 2014

NOTE: "FAIR" INDICATES FEW OR NO CLOUDS BELOW 12000 FEET WITH NO
SIGNIFICANT WEATHER AND/OR OBSTRUCTIONS TO VISIBILITY.

COZ001>005-013-030-031-172300-
...NORTHWEST COLORADO...

CITY           SKY/WX    TMP DP  RH WIND       PRES   REMARKS
CRAIG          SUNNY     61  22  22 SW9       30.03F
HAYDEN         SUNNY     57  19  23 SW14      30.07F
MEEKER         MOSUNNY   63  20  19 SW13G18   30.03F
MOUNT WERNER   SUNNY     39   9  28 SW12      30.20
STEAMBOAT SPGS SUNNY     56  12  17 SE5       30.05F
WALDEN         SUNNY     50  16  25 SW5       30.09F
$$

COZ006>008-011-172300-
...WEST CENTRAL VALLEYS...

CITY           SKY/WX    TMP DP  RH WIND       PRES   REMARKS
GRAND JUNCTION SUNNY     64  21  19 W3        30.03F
MONTROSE       SUNNY     65  19  17 VRB6      30.06F
EAGLE          MOSUNNY   61  19  20 SW13G26   30.07F
RIFLE          SUNNY     65  19  17 W20       30.02F
DELTA          SUNNY     69  21  16 CALM      30.03F
NUCLA            N/A     66  19  16 W6G22     30.10F
$$

COZ017>023-064>068-172300-
...SOUTHWEST COLORADO...

CITY           SKY/WX    TMP DP  RH WIND       PRES   REMARKS
DURANGO        SUNNY     63  17  17 SW13G22   30.10F
CORTEZ         SUNNY     66  16  14 NW12G21   30.09F
PAGOSA SPRINGS SUNNY     60  14  16 SW10      30.13S
TELLURIDE      SUNNY     54  19  26 W9G16     30.18F
WOLF CREEK PAS NOT AVBL
$$

COZ009-010-012-014-032>034-037-058>063-172300-
...CENTRAL COLORADO...

CITY           SKY/WX    TMP DP  RH WIND       PRES   REMARKS
ASPEN          PTSUNNY   56  14  19 S12       30.09F
BUENA VISTA    SUNNY     58  13  17 SW10G22   30.09F
COPPER MTN     MOSUNNY   39  12  33 SW9G24    30.23S
BERTHOUD PASS  FAIR      30  21  69 W20G26    30.24R WCI  18
COTTONWOOD PAS SUNNY     52  10  19 N5G16     30.16F
GUNNISON       SUNNY     55  16  21 W12G20    30.14S
KREMMLING      MOSUNNY   55  12  18 SW13      30.07F
LEADVILLE      MOSUNNY   43  12  28 W7G20     30.15F
MONARCH PASS   SUNNY     34  14  44 W32G44    30.34S WCI  20
SALIDA         SUNNY    N/A N/A N/A SW10G18   30.15F
SUNLIGHT       SUNNY     45  23  42 CALM      30.23S
WILKERSON PASS SUNNY     37  28  70 SW7       30.23F
$$

COZ069>075-172300-
...SAN LUIS VALLEY/SANGRE DE CRISTO MOUNTAINS...

CITY           SKY/WX    TMP DP  RH WIND       PRES   REMARKS
ALAMOSA        SUNNY     55  32  41 E9        30.12F
LA VETA PASS   SUNNY     45  23  42 SW5       30.22S
SAGUACHE       NOT AVBL
$$

COZ035-036-038>040-172300-
...NORTHERN COLORADO FRONT RANGE...

CITY           SKY/WX    TMP DP  RH WIND       PRES   REMARKS
DENVER INTL AP MOSUNNY   62  26  25 SE14      30.00F
DMNS CITY PARK   N/A     63  26  24 SE8G14    29.99F
AURORA         MOSUNNY   63  25  23 S13G20    30.02F
FRONT RANGE AP NOT AVBL
ERIE MUNI ARPT SUNNY     64  21  20 CALM      29.99F
BOULDER MUN AP SUNNY     63  28  27 NE7       29.98F
CENTENNIAL     PTSUNNY   58  29  33 SE10G23   30.02F
BROOMFIELD     MOSUNNY   63  21  20 E8        30.01F
FORT COLLINS   SUNNY     61  28  29 S3        30.01F
LONGMONT       SUNNY     67  27  22 S3        30.00F
$$

COZ041-046-047-076>085-087-088-172300-
...PIKES PEAK/PALMER DIVIDE AND SOUTHERN FOOTHILLS...

CITY           SKY/WX    TMP DP  RH WIND       PRES   REMARKS
COLO. SPRINGS  PTSUNNY   54  33  45 S18G25    30.10F
A. F. ACADEMY  SUNNY     52  35  53 SE15      30.09F
ELLICOTT       NOT AVBL
FALCON         SUNNY     51  32  47 S13G22    30.12F
FORT CARSON    SUNNY     55  34  45 SE17      30.08F
LIMON          SUNNY     55  32  41 S24G31    30.09F
MONUMENT HILL  SUNNY     50  32  50 S18G26    30.07F
TRINIDAD       MOSUNNY   55  34  45 VRB5      30.12F
$$

COZ042>045-048>051-090-091-172300-
...NORTHEAST COLORADO...

CITY           SKY/WX    TMP DP  RH WIND       PRES   REMARKS
GREELEY ARPT   SUNNY     64  27  24 SE9       30.01F
AKRON          MOSUNNY   60  29  30 S15       30.04F
BURLINGTON     CLOUDY    52  37  56 S21       30.14F
WRAY           MOSUNNY   62  36  37 S23       30.08F
STERLING       MOSUNNY   68  32  26 SW10      30.00F
HOLYOKE        SUNNY     61  36  39 S23       30.06F
FORT MORGAN    MOSUNNY   64  22  19 SE3       30.02F
$$

COZ086-089-092>099-172300-
...SOUTHEAST COLORADO...

CITY           SKY/WX    TMP DP  RH WIND       PRES   REMARKS
PUEBLO         SUNNY     60  35  39 SE7       30.07F
LA JUNTA       MOSUNNY   59  35  40 S15G21    30.11F
LAMAR          PTSUNNY   55  38  52 S18G24    30.14F
SPRINGFIELD      N/A     49  37  63 S14       30.18F
$$



USA.gov is the U.S. government's official web portal to all federal, state and local government web resources and services.